period_start,C,m1,H,J0,J1,J2,J3,J4,J5,JA,JB,JC,JD,JJ,JK,JN,#
2016-03-03 00:00:48,0.10,10.69,0.00,18.62,23.35,27.00,14.92,52.13,1017.59,2044.97,1138.87,1480.47,1678.99,600.18,605.81,56.52,0000 0000 0000 0000 000000
2016-03-03 00:05:49,0.12,10.70,0.00,18.61,23.35,27.02,14.93,52.07,1017.59,2044.98,1138.09,1480.01,1678.30,599.85,605.51,56.57,0000 0000 0000 0000 000000
2016-03-03 00:10:51,0.07,10.70,0.00,18.63,23.35,27.04,14.88,52.16,1017.59,2044.98,1137.81,1479.68,1677.98,600.23,605.79,56.62,0000 0000 0000 0000 000000
2016-03-03 00:15:52,0.15,10.71,0.00,18.64,23.35,27.01,15.00,52.10,1017.59,2044.97,1137.06,1479.03,1677.28,600.01,605.45,56.67,0000 0000 0000 0000 000000
2016-03-03 00:20:53,0.04,10.71,0.00,18.63,23.35,27.06,14.87,52.19,1017.59,2044.98,1136.79,1478.91,1676.99,599.97,605.52,56.72,0000 0000 0000 0000 000000
2016-03-03 00:25:54,0.16,10.72,0.00,18.64,23.35,27.01,14.93,52.69,1017.59,2044.97,1136.04,1478.14,1676.36,600.41,605.97,56.77,0000 0000 0000 0000 000000
2016-03-03 00:30:55,0.04,10.72,0.00,18.67,23.34,27.01,14.86,52.36,1017.58,2044.99,1135.79,1478.00,1676.00,599.93,605.48,56.82,0000 0000 0000 0000 000000
2016-03-03 00:35:57,0.17,10.73,0.00,18.66,23.34,27.03,14.90,52.33,1017.54,2044.98,1135.05,1477.37,1675.33,599.86,605.32,56.87,0000 0000 0000 0000 000000
2016-03-03 00:40:58,0.05,10.73,0.00,18.63,23.34,27.05,14.85,52.22,1017.52,2044.98,1134.65,1477.01,1674.99,600.34,605.94,56.92,0000 0000 0000 0000 000000
2016-03-03 00:45:59,0.11,10.74,0.00,18.65,23.34,27.03,14.90,52.29,1017.54,2044.98,1134.02,1476.81,1674.43,599.90,605.34,56.97,0000 0000 0000 0000 000000
2016-03-03 00:51:01,0.11,10.74,0.00,18.66,23.34,27.06,14.81,52.26,1017.58,2044.99,1133.69,1476.07,1674.00,599.77,605.27,57.02,0000 0000 0000 0000 000000
2016-03-03 00:56:02,0.08,10.75,0.00,18.67,23.34,27.06,14.84,52.29,1017.59,2044.99,1133.03,1475.96,1673.47,599.84,605.30,57.08,0000 0000 0000 0000 000000
2016-03-03 01:01:03,0.10,10.75,0.00,18.67,23.34,27.04,14.92,52.49,1017.57,2044.99,1132.84,1475.33,1673.01,600.14,605.52,57.13,0000 0000 0000 0000 000000
2016-03-03 01:06:05,0.10,10.76,0.00,18.67,23.34,27.04,14.89,52.39,1017.54,2044.99,1132.10,1475.00,1672.66,600.22,605.51,57.18,0000 0000 0000 0000 000000
2016-03-03 01:11:06,0.05,10.76,0.00,18.67,23.34,27.05,14.83,52.36,1017.29,2044.99,1131.91,1474.81,1672.02,600.07,605.44,57.23,0000 0000 0000 0000 000000
2016-03-03 01:16:07,0.16,10.77,0.00,18.66,23.34,27.02,14.91,52.36,1017.24,2044.99,1131.14,1474.07,1671.73,600.07,605.38,57.28,0000 0000 0000 0000 000000
2016-03-03 01:21:09,0.05,10.78,0.00,18.65,23.35,27.02,14.89,52.42,1017.14,2044.99,1130.83,1473.96,1671.03,600.21,605.42,57.33,0000 0000 0000 0000 000000
2016-03-03 01:26:10,0.17,10.78,0.00,18.64,23.35,27.04,14.93,52.94,1017.11,2044.99,1130.07,1473.26,1670.67,600.04,605.37,57.38,0000 0000 0000 0000 000000
2016-03-03 01:31:11,0.09,10.79,0.00,18.65,23.35,27.08,14.95,52.94,1017.10,2044.99,1129.56,1472.98,1670.01,600.01,605.12,57.43,0000 0000 0000 0000 000000
2016-03-03 01:36:12,0.14,10.79,0.00,18.64,23.35,27.05,14.88,52.82,1017.10,2044.99,1129.01,1472.41,1669.45,599.85,605.08,57.48,0000 0000 0000 0000 000000
2016-03-03 01:41:13,0.03,10.80,0.00,18.59,23.35,27.07,14.83,52.74,1017.11,2044.99,1128.92,1472.00,1668.99,599.66,605.04,57.53,0000 0000 0000 0000 000000
2016-03-03 01:46:15,0.17,10.80,0.00,18.60,23.35,27.04,14.90,52.60,1017.18,2044.99,1128.11,1471.71,1668.33,600.07,605.39,57.58,0000 0000 0000 0000 000000
2016-03-03 01:51:16,0.04,10.81,0.00,18.63,23.35,27.09,14.88,52.56,1017.31,2044.99,1127.98,1471.03,1667.96,600.03,605.29,57.63,0000 0000 0000 0000 000000
2016-03-03 01:56:17,0.12,10.81,0.00,18.63,23.35,27.06,14.80,52.58,1017.48,2044.99,1127.38,1470.99,1667.18,600.03,605.41,57.68,0000 0000 0000 0000 000000
2016-03-03 02:01:19,0.07,10.82,0.00,18.62,23.35,27.03,14.91,52.63,1017.58,2044.99,1127.01,1470.54,1666.99,599.66,605.30,57.73,0000 0000 0000 0000 000000
2016-03-03 02:06:20,0.08,10.82,0.00,18.63,23.35,27.00,14.90,52.58,1017.60,2044.99,1126.83,1470.02,1666.41,600.17,605.67,57.78,0000 0000 0000 0000 000000
2016-03-03 02:11:21,0.08,10.83,0.00,18.62,23.35,27.03,14.92,52.98,1017.60,2044.99,1126.18,1469.97,1666.01,599.71,605.31,57.83,0000 0000 0000 0000 000000
2016-03-03 02:16:22,0.09,10.83,0.00,18.64,23.35,27.00,14.86,52.76,1017.60,2044.99,1126.00,1469.45,1665.70,599.74,605.27,57.88,0000 0000 0000 0000 000000
2016-03-03 02:21:24,0.08,10.83,0.00,18.66,23.35,27.02,14.88,52.75,1017.62,2044.99,1125.72,1469.01,1665.03,599.88,605.44,57.93,0000 0000 0000 0000 000000
2016-03-03 02:26:25,0.06,10.84,0.00,18.65,23.35,27.05,14.86,52.67,1017.61,2044.99,1125.07,1468.95,1664.87,599.99,605.36,57.99,0000 0000 0000 0000 000000
2016-03-03 02:31:26,0.11,10.85,0.00,18.65,23.35,27.04,14.83,52.36,1017.62,2044.99,1124.92,1468.28,1664.11,599.71,605.22,58.04,0000 0000 0000 0000 000000
2016-03-03 02:36:28,0.09,10.85,0.00,18.69,23.35,27.01,14.95,52.42,1017.61,2044.99,1124.18,1468.00,1663.99,600.19,605.64,58.09,0000 0000 0000 0000 000000
2016-03-03 02:41:29,0.05,10.85,0.00,18.72,23.36,26.99,14.88,52.48,1017.60,2044.99,1123.99,1467.94,1663.39,599.92,605.30,58.14,0000 0000 0000 0000 000000
2016-03-03 02:46:31,0.07,10.86,0.00,18.72,23.37,27.01,14.82,52.42,1017.59,2044.99,1123.93,1467.30,1663.01,599.77,605.19,58.19,0000 0000 0000 0000 000000
2016-03-03 02:51:32,0.09,10.86,0.00,18.72,23.37,27.05,14.84,52.53,1017.59,2044.99,1123.19,1467.01,1662.97,599.59,605.00,58.24,0000 0000 0000 0000 000000
2016-03-03 02:56:34,0.05,10.86,0.00,18.72,23.37,27.04,14.93,52.52,1017.55,2044.99,1123.00,1466.99,1662.35,600.27,605.64,58.29,0000 0000 0000 0000 000000
2016-03-03 03:01:35,0.16,10.87,0.00,18.75,23.37,27.04,14.82,52.58,1017.17,2044.99,1122.31,1466.36,1662.00,600.19,605.15,58.34,0000 0000 0000 0000 000000
2016-03-03 03:06:37,0.05,10.88,0.00,18.77,23.37,27.03,14.94,52.88,1017.13,2044.99,1121.96,1466.00,1661.51,599.78,604.82,58.39,0000 0000 0000 0000 000000
2016-03-03 03:11:38,0.09,10.88,0.00,18.78,23.37,26.99,14.88,52.83,1017.14,2044.99,1121.67,1465.76,1661.01,599.98,604.87,58.44,0000 0000 0000 0000 000000
2016-03-03 03:16:39,0.10,10.88,0.00,18.79,23.39,27.05,14.84,52.64,1017.35,2044.99,1121.11,1465.07,1660.75,599.90,605.00,58.49,0000 0000 0000 0000 000000
2016-03-03 03:21:41,0.04,10.89,0.00,18.80,23.39,27.01,14.91,52.67,1017.56,2044.99,1121.00,1464.99,1660.05,600.48,605.51,58.54,0000 0000 0000 0000 000000
2016-03-03 03:26:42,0.02,10.89,0.00,18.80,23.40,27.04,14.82,52.53,1017.58,2044.99,1120.92,1464.86,1659.98,600.06,605.19,58.59,0000 0000 0000 0000 000000
2016-03-03 03:31:43,0.18,10.90,0.00,18.81,23.40,27.05,14.89,52.83,1017.58,2044.98,1120.19,1464.13,1659.27,600.00,605.15,58.64,0000 0000 0000 0000 000000
2016-03-03 03:36:44,0.01,10.90,0.00,18.83,23.42,27.09,15.00,52.66,1017.59,2044.98,1120.00,1464.00,1659.00,600.48,605.34,58.69,0000 0000 0000 0000 000000
2016-03-03 03:41:46,0.10,10.90,0.00,18.84,23.42,27.11,14.87,52.78,1017.59,2044.98,1119.63,1463.89,1658.66,600.22,605.28,58.74,0000 0000 0000 0000 000000
2016-03-03 03:46:47,0.11,10.91,0.00,18.83,23.42,27.10,14.96,52.73,1017.59,2044.98,1119.03,1463.13,1658.03,600.36,605.63,58.79,0000 0000 0000 0000 000000
2016-03-03 03:51:48,0.02,10.91,0.00,18.79,23.42,27.11,14.81,52.48,1017.59,2044.98,1118.88,1463.00,1657.94,600.15,605.32,58.85,0000 0000 0000 0000 000000
2016-03-03 03:56:50,0.14,10.92,0.00,18.80,23.44,27.10,14.85,52.48,1017.59,2044.99,1118.08,1462.82,1657.23,599.59,604.70,58.90,0000 0000 0000 0000 000000
2016-03-03 04:01:51,0.09,10.92,0.00,18.83,23.44,27.11,14.92,52.62,1017.59,2044.98,1117.84,1462.08,1656.98,600.19,605.29,58.95,0000 0000 0000 0000 000000
2016-03-03 04:06:52,0.10,10.93,0.00,18.84,23.45,27.11,14.89,52.94,1017.59,2044.98,1117.11,1462.00,1656.40,600.17,605.31,59.00,0000 0000 0000 0000 000000
2016-03-03 04:11:54,0.07,10.93,0.00,18.86,23.45,27.13,14.90,52.73,1017.60,2044.97,1116.99,1461.58,1656.01,600.08,605.23,59.05,0000 0000 0000 0000 000000
2016-03-03 04:16:55,0.12,10.93,0.00,18.88,23.45,27.12,14.91,52.79,1017.62,2044.96,1116.54,1461.03,1655.71,600.13,605.11,59.10,0000 0000 0000 0000 000000
2016-03-03 04:21:57,0.04,10.94,0.00,18.90,23.47,27.13,14.96,52.67,1017.64,2044.97,1116.02,1460.99,1655.05,599.93,604.93,59.15,0000 0000 0000 0000 000000
2016-03-03 04:26:58,0.07,10.94,0.00,18.92,23.47,27.15,14.87,52.73,1017.71,2044.96,1115.87,1460.55,1654.93,599.81,604.83,59.20,0000 0000 0000 0000 000000
2016-03-03 04:31:59,0.14,10.95,0.00,18.93,23.48,27.15,14.91,52.57,1017.91,2044.95,1115.10,1460.01,1654.14,600.05,605.12,59.25,0000 0000 0000 0000 000000
2016-03-03 04:37:00,0.01,10.95,0.00,18.96,23.49,27.20,14.93,52.74,1017.78,2044.96,1114.99,1459.96,1653.99,600.00,605.00,59.30,0000 0000 0000 0000 000000
2016-03-03 04:42:02,0.17,10.96,0.00,18.97,23.50,27.20,14.86,52.43,1017.75,2044.86,1114.49,1459.29,1653.36,599.81,604.71,59.35,0000 0000 0000 0000 000000
2016-03-03 04:47:03,0.01,10.96,0.00,19.00,23.51,27.15,14.89,52.48,1017.94,2044.76,1114.01,1459.00,1652.99,600.21,605.19,59.40,0000 0000 0000 0000 000000
2016-03-03 04:52:04,0.04,10.96,0.00,19.03,23.52,27.15,14.92,52.52,1018.01,2044.77,1113.95,1458.93,1652.68,599.79,604.77,59.45,0000 0000 0000 0000 000000
2016-03-03 04:57:05,0.11,10.97,0.00,19.04,23.54,27.20,14.90,52.50,1018.06,2044.40,1113.26,1458.20,1652.04,600.16,604.99,59.50,0000 0000 0000 0000 000000
2016-03-03 05:02:07,-0.00,10.97,0.00,19.05,23.55,27.22,14.90,52.80,1018.08,2044.15,1113.00,1458.00,1651.79,600.19,605.19,59.55,0000 0000 0000 0000 000000
2016-03-03 05:07:08,0.09,10.97,0.00,19.07,23.57,27.23,14.86,52.82,1018.09,2044.08,1112.71,1457.75,1651.05,599.72,604.62,59.60,0000 0000 0000 0000 000000
2016-03-03 05:12:09,0.11,10.98,0.00,19.06,23.57,27.23,14.93,52.85,1018.09,2044.06,1112.04,1457.07,1650.86,600.03,604.97,59.65,0000 0000 0000 0000 000000
2016-03-03 05:17:10,0.05,10.98,0.00,19.06,23.59,27.23,14.90,52.89,1018.11,2044.07,1111.88,1456.95,1650.14,599.77,604.67,59.70,0000 0000 0000 0000 000000
2016-03-03 05:22:12,0.17,10.99,0.00,19.04,23.60,27.30,14.98,52.95,1018.18,2044.03,1111.17,1456.20,1649.81,600.24,605.28,59.76,0000 0000 0000 0000 000000
2016-03-03 05:27:13,0.04,10.99,0.00,19.06,23.60,27.27,14.89,52.79,1018.26,2044.03,1110.99,1456.00,1649.05,599.92,604.96,59.81,0000 0000 0000 0000 000000
2016-03-03 05:32:14,0.10,11.00,0.00,19.08,23.62,27.25,14.84,52.82,1018.14,2044.01,1110.63,1455.73,1648.85,599.86,604.96,59.86,0000 0000 0000 0000 000000
2016-03-03 05:37:15,0.11,11.01,0.00,19.09,23.62,27.30,14.79,52.92,1018.17,2044.01,1110.02,1455.04,1648.09,599.66,604.56,59.91,0000 0000 0000 0000 000000
2016-03-03 05:42:17,0.02,11.01,0.00,19.08,23.62,27.24,14.87,52.79,1018.25,2044.00,1109.91,1454.98,1647.98,599.97,605.01,59.96,0000 0000 0000 0000 000000
2016-03-03 05:47:18,0.18,11.01,0.00,19.05,23.64,27.30,14.80,52.97,1018.26,2044.01,1109.27,1454.49,1647.37,599.76,604.82,60.01,0000 0000 0000 0000 000000
2016-03-03 05:52:19,0.02,11.02,0.00,19.05,23.65,27.32,14.82,52.88,1018.18,2044.00,1108.99,1454.01,1647.00,599.81,604.92,60.06,0000 0000 0000 0000 000000
2016-03-03 05:57:20,0.14,11.02,0.00,19.03,23.65,27.29,14.90,53.04,1018.17,2044.00,1108.32,1453.85,1646.45,599.48,604.62,60.11,0000 0000 0000 0000 000000
2016-03-03 06:02:22,0.18,1.84,0.00,19.03,23.69,27.32,12.80,43.98,1018.22,2048.36,3261.30,2948.60,3346.46,530.59,533.03,0.00,0000 0000 0000 0000 000000
2016-03-03 06:07:23,0.17,0.00,0.00,19.02,23.67,27.33,14.93,49.88,1018.24,2049.04,3588.50,3176.80,3606.85,600.25,605.20,0.05,0000 0000 0000 0000 000000
2016-03-03 06:12:24,0.17,0.00,0.00,19.00,23.67,27.32,14.87,49.81,1018.16,2049.02,3586.11,3175.44,3605.20,600.07,605.18,0.10,0000 0000 0000 0000 000000
2016-03-03 06:17:26,0.15,0.01,0.00,19.00,23.67,27.33,14.75,49.83,1018.08,2049.02,3584.09,3174.04,3603.56,599.58,604.60,0.15,0000 0000 0000 0000 000000
2016-03-03 06:22:27,0.12,0.01,0.00,18.98,23.67,27.33,14.78,49.92,1018.09,2049.01,3582.26,3172.70,3601.95,599.86,604.99,0.20,0000 0000 0000 0000 000000
2016-03-03 06:27:28,0.10,0.02,0.00,19.00,23.67,27.34,14.87,49.94,1018.08,2049.00,3580.32,3171.34,3600.31,600.07,605.13,0.25,0000 0000 0000 0000 000000
2016-03-03 06:32:30,0.08,0.02,0.00,18.97,23.67,27.32,14.79,49.83,1018.08,2049.01,3578.48,3169.97,3598.82,599.77,604.88,0.30,0000 0000 0000 0000 000000
2016-03-03 06:37:31,0.08,0.02,0.00,18.94,23.67,27.31,14.85,49.81,1018.09,2049.00,3576.67,3168.64,3597.34,600.30,605.44,0.35,0000 0000 0000 0000 000000
2016-03-03 06:42:32,0.07,0.03,0.00,18.93,23.67,27.31,14.79,49.80,1018.13,2049.02,3574.92,3167.45,3595.83,599.82,605.09,0.40,0000 0000 0000 0000 000000
2016-03-03 06:47:34,0.08,0.03,0.00,18.91,23.67,27.32,14.83,49.79,1018.10,2049.02,3573.11,3166.13,3594.30,599.98,605.10,0.45,0000 0000 0000 0000 000000
2016-03-03 06:52:35,0.08,0.04,0.00,18.86,23.67,27.28,14.81,49.71,1018.10,2049.02,3571.36,3164.77,3592.72,599.77,605.21,0.50,0000 0000 0000 0000 000000
2016-03-03 06:57:36,0.08,0.04,0.00,18.85,23.66,27.29,14.92,49.66,1018.09,2049.02,3569.55,3163.53,3591.30,600.59,605.93,0.55,0000 0000 0000 0000 000000
2016-03-03 07:02:38,0.08,0.05,0.00,18.82,23.65,27.29,14.83,49.67,1018.10,2049.03,3567.73,3162.24,3589.67,600.00,605.52,0.61,0000 0000 0000 0000 000000
2016-03-03 07:07:39,0.07,0.05,0.00,18.79,23.65,27.27,14.85,49.67,1018.10,2049.04,3565.94,3161.03,3588.34,599.85,605.35,0.66,0000 0000 0000 0000 000000
2016-03-03 07:12:40,0.08,0.05,0.00,18.76,23.65,27.27,14.88,49.72,1018.09,2049.04,3564.26,3159.74,3586.82,599.82,605.40,0.71,0000 0000 0000 0000 000000
2016-03-03 07:17:42,0.07,0.06,0.00,18.73,23.63,27.26,14.96,49.79,1018.08,2049.08,3562.56,3158.56,3585.50,600.43,606.06,0.76,0000 0000 0000 0000 000000
2016-03-03 07:22:43,0.08,0.06,0.00,18.73,23.62,27.25,14.91,49.63,1018.19,2049.12,3560.84,3157.30,3583.98,600.30,606.07,0.81,0000 0000 0000 0000 000000
2016-03-03 07:27:44,0.07,0.07,0.00,18.72,23.62,27.30,14.82,49.59,1018.13,2049.09,3558.99,3155.95,3582.64,600.42,606.02,0.86,0000 0000 0000 0000 000000
2016-03-03 07:32:45,0.08,0.07,0.00,18.67,23.60,27.21,14.91,49.65,1018.10,2049.19,3557.37,3154.83,3581.41,600.39,606.16,0.91,0000 0000 0000 0000 000000
2016-03-03 07:37:46,0.08,0.07,0.00,18.64,23.60,27.21,14.88,49.73,1018.16,2049.24,3555.65,3153.61,3580.05,600.22,606.07,0.96,0000 0000 0000 0000 000000
2016-03-03 07:42:47,0.09,0.08,0.00,18.62,23.57,27.18,14.86,49.68,1018.16,2049.45,3554.06,3152.47,3578.68,600.13,606.03,1.01,0000 0000 0000 0000 000000
2016-03-03 07:47:48,0.08,0.08,0.00,18.61,23.57,27.19,14.89,49.71,1018.12,2049.58,3552.35,3151.14,3577.20,600.19,606.08,1.06,0000 0000 0000 0000 000000
2016-03-03 07:52:50,0.09,0.09,0.00,18.57,23.55,27.18,14.86,49.71,1018.10,2049.67,3550.57,3149.93,3575.84,599.90,605.82,1.11,0000 0000 0000 0000 000000
2016-03-03 07:57:51,0.08,0.09,0.00,18.53,23.54,27.16,14.93,49.77,1018.13,2049.79,3548.84,3148.74,3574.55,600.26,606.36,1.16,0000 0000 0000 0000 000000
2016-03-03 08:02:52,0.07,0.10,0.00,18.52,23.52,27.11,14.91,49.78,1018.39,2049.95,3547.28,3147.68,3573.21,600.22,606.57,1.21,0000 0000 0000 0000 000000
2016-03-03 08:07:53,0.07,0.10,0.00,18.53,23.51,27.12,14.92,49.78,1018.55,2049.99,3545.72,3146.56,3571.90,600.07,606.52,1.26,0000 0000 0000 0000 000000
2016-03-03 08:12:55,0.06,0.10,0.00,18.48,23.50,27.13,14.86,49.60,1018.57,2049.99,3544.23,3145.50,3570.58,599.96,606.43,1.31,0000 0000 0000 0000 000000
2016-03-03 08:17:56,0.06,0.11,0.00,18.46,23.48,27.12,14.90,49.71,1018.57,2049.99,3542.70,3144.49,3569.38,599.99,606.50,1.36,0000 0000 0000 0000 000000
2016-03-03 08:22:57,0.06,0.11,0.00,18.47,23.47,27.15,14.89,49.70,1018.57,2049.99,3541.03,3143.40,3568.10,600.05,606.46,1.41,0000 0000 0000 0000 000000
2016-03-03 08:27:59,0.07,0.11,0.00,18.46,23.45,27.08,14.91,49.56,1018.59,2049.99,3539.50,3142.26,3566.73,600.20,606.73,1.46,0000 0000 0000 0000 000000
2016-03-03 08:33:00,0.06,0.12,0.00,18.44,23.43,27.06,14.89,49.60,1018.58,2049.99,3537.90,3141.14,3565.46,599.75,606.26,1.51,0000 0000 0000 0000 000000
2016-03-03 08:38:02,0.06,0.12,0.00,18.42,23.42,27.05,14.90,49.59,1018.57,2049.99,3536.32,3140.03,3564.23,600.09,606.67,1.56,0000 0000 0000 0000 000000
2016-03-03 08:43:03,0.08,0.12,0.00,18.41,23.40,27.00,14.83,49.57,1018.57,2050.01,3534.70,3138.88,3562.89,599.89,606.45,1.61,0000 0000 0000 0000 000000
2016-03-03 08:48:04,0.07,0.13,0.00,18.41,23.39,27.02,14.92,49.79,1018.57,2050.01,3533.11,3137.79,3561.62,599.96,606.66,1.66,0000 0000 0000 0000 000000
2016-03-03 08:53:05,0.07,0.13,0.00,18.40,23.37,27.03,14.94,49.80,1018.57,2050.01,3531.52,3136.68,3560.41,600.25,606.86,1.71,0000 0000 0000 0000 000000
2016-03-03 08:58:07,0.07,0.14,0.00,18.38,23.36,27.00,14.87,49.44,1018.57,2050.05,3529.87,3135.53,3559.04,599.94,606.61,1.76,0000 0000 0000 0000 000000
2016-03-03 09:03:08,0.07,0.14,0.00,18.36,23.35,27.00,14.89,49.60,1018.57,2050.06,3528.37,3134.61,3557.74,600.07,606.89,1.81,0000 0000 0000 0000 000000
2016-03-03 09:08:10,0.08,0.14,0.00,18.35,23.34,26.97,14.87,49.58,1018.58,2050.19,3526.79,3133.57,3556.52,599.99,606.83,1.86,0000 0000 0000 0000 000000
2016-03-03 09:13:11,0.09,0.15,0.00,18.36,23.32,26.99,14.90,49.52,1018.59,2050.46,3525.20,3132.43,3555.21,599.64,606.34,1.91,0000 0000 0000 0000 000000
2016-03-03 09:18:12,0.07,0.15,0.00,18.33,23.32,26.98,14.90,49.55,1018.58,2050.63,3523.68,3131.32,3553.90,599.86,606.71,1.96,0000 0000 0000 0000 000000
2016-03-03 09:23:13,0.09,0.16,0.00,18.33,23.30,26.94,14.84,49.63,1018.58,2050.84,3521.95,3130.12,3552.55,600.23,606.98,2.01,0000 0000 0000 0000 000000
2016-03-03 09:28:15,0.07,0.16,0.00,18.32,23.29,26.90,14.84,49.73,1018.57,2050.90,3520.39,3128.98,3551.27,599.81,606.64,2.06,0000 0000 0000 0000 000000
2016-03-03 09:33:16,0.07,0.16,0.00,18.31,23.27,26.92,14.94,49.60,1018.58,2050.91,3518.94,3127.92,3549.82,600.19,606.96,2.11,0000 0000 0000 0000 000000
2016-03-03 09:38:17,0.07,0.17,0.00,18.30,23.26,26.88,14.81,49.68,1018.67,2050.97,3517.50,3126.87,3548.63,599.76,606.66,2.16,0000 0000 0000 0000 000000
2016-03-03 09:43:18,0.06,0.17,0.00,18.29,23.24,26.87,14.87,49.75,1018.80,2050.96,3515.97,3125.85,3547.44,599.84,606.82,2.21,0000 0000 0000 0000 000000
2016-03-03 09:48:19,0.08,0.17,0.00,18.29,23.23,26.89,14.96,49.74,1019.05,2050.98,3514.33,3124.67,3546.07,600.68,607.77,2.26,0000 0000 0000 0000 000000
2016-03-03 09:53:21,0.07,0.18,0.00,18.28,23.22,26.83,14.96,49.82,1019.06,2050.98,3512.70,3123.58,3544.72,599.93,607.07,2.31,0000 0000 0000 0000 000000
2016-03-03 09:58:22,0.06,0.18,0.00,18.29,23.21,26.79,14.87,49.49,1019.10,2050.98,3511.15,3122.46,3543.45,599.97,607.16,2.36,0000 0000 0000 0000 000000
2016-03-03 10:03:23,0.06,0.19,0.00,18.29,23.19,26.81,14.96,49.47,1019.47,2050.99,3509.57,3121.27,3542.11,600.23,607.37,2.41,0000 0000 0000 0000 000000
2016-03-03 10:08:25,0.06,0.19,0.00,18.27,23.19,26.77,14.89,49.49,1019.49,2050.99,3508.08,3120.23,3540.94,600.07,607.52,2.46,0000 0000 0000 0000 000000
2016-03-03 10:13:26,0.06,0.19,0.00,18.28,23.18,26.76,14.95,49.34,1019.53,2050.99,3506.68,3119.28,3539.75,600.09,607.50,2.51,0000 0000 0000 0000 000000
2016-03-03 10:18:27,0.06,0.20,0.00,18.27,23.17,26.78,14.89,49.59,1019.24,2050.99,3505.18,3118.25,3538.62,599.95,607.22,2.56,0000 0000 0000 0000 000000
2016-03-03 10:23:29,0.06,0.20,0.00,18.30,23.17,26.72,14.93,49.37,1019.17,2050.99,3503.72,3117.24,3537.39,600.16,607.32,2.61,0000 0000 0000 0000 000000
2016-03-03 10:28:30,0.06,0.20,0.00,18.33,23.15,26.74,14.87,49.24,1019.14,2050.99,3502.35,3116.26,3536.27,600.40,607.52,2.66,0000 0000 0000 0000 000000
2016-03-03 10:33:31,0.07,0.21,0.00,18.39,23.15,26.73,14.86,49.42,1019.29,2050.99,3500.79,3115.14,3534.96,600.07,607.10,2.71,0000 0000 0000 0000 000000
2016-03-03 10:38:32,0.06,0.21,0.00,18.41,23.15,26.72,14.87,49.39,1019.25,2051.00,3499.31,3114.01,3533.64,600.22,607.31,2.76,0000 0000 0000 0000 000000
2016-03-03 10:43:34,0.06,0.21,0.00,18.40,23.15,26.77,14.84,49.33,1019.48,2051.00,3497.90,3113.06,3532.57,599.72,607.11,2.81,0000 0000 0000 0000 000000
2016-03-03 10:48:35,0.07,0.22,0.00,18.43,23.14,26.72,14.94,49.30,1019.54,2051.00,3496.46,3111.95,3531.36,600.59,607.71,2.86,0000 0000 0000 0000 000000
2016-03-03 10:53:37,0.05,0.22,0.00,18.43,23.14,26.74,14.89,49.10,1019.55,2051.01,3495.00,3111.00,3530.17,599.94,607.00,2.91,0000 0000 0000 0000 000000
2016-03-03 10:58:38,0.06,0.22,0.00,18.45,23.14,26.73,14.88,49.08,1019.55,2051.01,3493.64,3110.01,3529.00,599.83,606.89,2.97,0000 0000 0000 0000 000000
2016-03-03 11:03:39,0.07,0.23,0.00,18.47,23.15,26.75,14.92,49.42,1019.55,2051.00,3492.14,3108.94,3527.73,600.14,607.23,3.02,0000 0000 0000 0000 000000
2016-03-03 11:08:40,0.06,0.23,0.00,18.47,23.15,26.73,14.90,49.33,1019.57,2051.00,3490.62,3107.90,3526.54,600.27,607.32,3.07,0000 0000 0000 0000 000000
2016-03-03 11:13:41,0.06,0.23,0.00,18.49,23.15,26.74,14.91,49.21,1019.57,2051.01,3489.13,3106.93,3525.48,600.41,607.43,3.12,0000 0000 0000 0000 000000
2016-03-03 11:18:43,0.06,0.24,0.00,18.50,23.16,26.73,14.87,49.10,1019.58,2051.01,3487.71,3105.99,3524.27,599.95,606.89,3.17,0000 0000 0000 0000 000000
2016-03-03 11:23:44,0.07,0.24,0.00,18.52,23.17,26.77,14.88,49.02,1019.72,2051.00,3486.21,3104.87,3522.97,599.89,607.05,3.22,0000 0000 0000 0000 000000
2016-03-03 11:28:45,0.07,0.24,0.00,18.57,23.17,26.77,14.90,48.98,1019.88,2051.00,3484.70,3103.79,3521.73,600.03,607.02,3.27,0000 0000 0000 0000 000000
2016-03-03 11:33:46,0.06,0.25,0.00,18.62,23.18,26.83,14.93,49.00,1019.91,2051.00,3483.23,3102.72,3520.49,600.40,607.35,3.32,0000 0000 0000 0000 000000
2016-03-03 11:38:48,0.07,0.25,0.00,18.64,23.19,26.81,14.79,48.88,1019.82,2051.00,3481.67,3101.64,3519.37,599.96,606.78,3.37,0000 0000 0000 0000 000000
2016-03-03 11:43:49,0.06,0.25,0.00,18.65,23.20,26.82,14.87,49.23,1019.69,2051.00,3480.15,3100.56,3518.13,600.20,606.89,3.42,0000 0000 0000 0000 000000
2016-03-03 11:48:51,0.07,0.26,0.00,18.67,23.22,26.84,14.82,49.09,1019.56,2050.99,3478.57,3099.43,3516.80,599.87,606.49,3.47,0000 0000 0000 0000 000000
2016-03-03 11:53:52,0.06,0.26,0.00,18.70,23.22,26.90,14.90,49.18,1019.55,2050.98,3477.07,3098.40,3515.66,600.21,606.80,3.52,0000 0000 0000 0000 000000
2016-03-03 11:58:53,0.06,0.26,0.00,18.72,23.24,26.87,14.85,49.44,1019.55,2050.99,3475.53,3097.26,3514.46,600.13,606.57,3.57,0000 0000 0000 0000 000000
2016-03-03 12:03:54,0.06,0.27,0.00,18.72,23.25,26.93,14.87,49.57,1019.56,2050.98,3473.92,3096.11,3513.19,600.02,606.49,3.62,0000 0000 0000 0000 000000
2016-03-03 12:08:55,0.06,0.27,0.00,18.74,23.26,26.94,14.89,49.53,1019.56,2050.98,3472.55,3095.08,3511.97,600.26,606.83,3.67,0000 0000 0000 0000 000000
2016-03-03 12:13:57,0.08,0.28,0.00,18.78,23.27,26.92,14.86,49.47,1019.57,2050.97,3470.92,3093.93,3510.65,599.70,606.20,3.72,0000 0000 0000 0000 000000
2016-03-03 12:18:58,0.08,0.28,0.00,18.79,23.28,26.94,14.82,49.44,1019.57,2050.95,3469.41,3092.60,3509.39,600.05,606.55,3.77,0000 0000 0000 0000 000000
2016-03-03 12:23:59,0.07,0.28,0.00,18.78,23.29,26.97,14.77,49.44,1019.68,2050.97,3467.81,3091.53,3508.13,599.79,606.11,3.82,0000 0000 0000 0000 000000
2016-03-03 12:29:01,0.08,0.29,0.00,18.75,23.29,26.98,14.87,49.61,1019.80,2050.96,3466.05,3090.16,3506.56,600.06,606.64,3.87,0000 0000 0000 0000 000000
2016-03-03 12:34:02,0.07,0.29,0.00,18.76,23.31,27.02,14.85,49.40,1019.95,2050.95,3464.41,3088.87,3505.06,600.12,606.79,3.92,0000 0000 0000 0000 000000
2016-03-03 12:39:03,0.06,0.29,0.00,18.79,23.32,27.01,14.87,49.50,1019.87,2050.76,3462.69,3087.57,3503.62,599.92,606.57,3.97,0000 0000 0000 0000 000000
2016-03-03 12:44:04,0.06,0.30,0.00,18.78,23.33,27.01,14.83,49.23,1019.89,2050.69,3461.21,3086.53,3502.31,599.69,606.25,4.02,0000 0000 0000 0000 000000
2016-03-03 12:49:05,0.07,0.30,0.00,18.78,23.34,27.03,14.88,49.44,1019.77,2050.76,3459.70,3085.46,3501.10,599.85,606.37,4.07,0000 0000 0000 0000 000000
2016-03-03 12:54:07,0.05,0.31,0.00,18.78,23.34,27.02,14.78,49.38,1019.90,2050.63,3458.23,3084.31,3499.77,599.57,606.11,4.12,0000 0000 0000 0000 000000